Regional Weather Roundup
Issued by NWS

Home | Current Version | Previous Version | Graphics & Text | Print | Product List | Glossary On
Versions: 1 2 3 4 5 6 7 8 9 10 11 12 13 14 15 16 17 18 19 20 21 22 23 24 25 26 27 28 29 30 31 32 33 34 35 36 37 38 39 40 41 42 43 44 45 46 47 48 49 50
000
ASUS45 KPSR 301500
RWRAZ

PRELIMINARY ARIZONA REGIONAL HOURLY WEATHER ROUNDUP
NATIONAL WEATHER SERVICE PHOENIX AZ
800 AM MST WED JUL 30 2014

NOTE: FAIR INDICATES FEW OR NO CLOUDS BELOW 12,000 FEET WITH NO
SIGNIFICANT WEATHER AND/OR OBSTRUCTIONS TO VISIBILITY.

AZZ001>003-036-301600-
NORTHWEST ARIZONA

CITY           SKY/WX    TMP DP  RH WIND       PRES   REMARKS
KINGMAN        SUNNY     82  50  32 CALM      30.08R
$$

AZZ004>008-015-016-018-301600-
NORTH CENTRAL ARIZONA

CITY           SKY/WX    TMP DP  RH WIND       PRES   REMARKS
GRAND CANYON   SUNNY     71  52  50 CALM      30.33R
WILLIAMS       SUNNY     68  54  60 CALM      30.39R
PRESCOTT       SUNNY     78  51  38 CALM      30.21R
FLAGSTAFF      SUNNY     69  50  50 CALM      30.36R
PAYSON         SUNNY     81  52  36 VRB3      30.23R
PAGE           SUNNY     79  52  38 VRB3      30.15R
$$

AZZ009>014-017-301600-
NORTHEAST ARIZONA

CITY           SKY/WX    TMP DP  RH WIND       PRES   REMARKS
WINSLOW        NOT AVBL
SAINT JOHNS    SUNNY     76  52  43 S6        30.25R
WINDOW ROCK    SUNNY     70  53  54 VRB3      30.32R
$$

AZZ023-301600-
GREATER PHOENIX AREA

CITY           SKY/WX    TMP DP  RH WIND       PRES   REMARKS
PHOENIX        MOSUNNY   95  56  26 VRB3      29.88R
BUCKEYE          N/A     91  55  29 W3        29.90R
GLENDALE       MOSUNNY   93  55  27 S5        29.90R
DEER VALLEY    SUNNY     91  58  32 CALM      29.91R
SCOTTSDALE     SUNNY     91  59  33 SE3       29.93R
MESA-GATEWAY   MOSUNNY   88  59  37 SE6       29.93R
CHANDLER       MOSUNNY   91  59  33 E5        29.91R
$$

AZZ027-028-301600-
SOUTHWEST MARICOPA COUNTY AND PINAL COUNTY

CITY           SKY/WX    TMP DP  RH WIND       PRES   REMARKS
CASA GRANDE    SUNNY     91  57  31 CALM      29.94R
GILA BEND      MOSUNNY   97  57  26 S3        29.90R
$$

AZZ503-504-507>509-301600-
SOUTHEAST ARIZONA

CITY           SKY/WX    TMP DP  RH WIND       PRES   REMARKS
TUCSON         SUNNY     87  59  38 S6        30.05R
RYAN FIELD       N/A     82  59  44 W3        30.03R
NOGALES        MOSUNNY   78  60  53 S3        30.14R
SIERRA VISTA   PTSUNNY   81  55  41 CALM      30.20R
SAFFORD        SUNNY     83  57  41 CALM      30.06R
$$

AZZ020-021-025-026-031-301600-
SOUTHWEST ARIZONA

CITY           SKY/WX    TMP DP  RH WIND       PRES   REMARKS
YUMA           MOSUNNY   93  51  23 SW6       29.84R
$$

CAZ031-033-041-043-047-048-061-301600-
SOUTHERN CALIFORNIA

CITY           SKY/WX    TMP DP  RH WIND       PRES   REMARKS
DOWNTOWN L.A.  SUNNY     73  63  70 CALM      29.96R
L.A. AIRPORT   MOSUNNY   71  64  78 W5        29.97R
SAN DIEGO      MOSUNNY   73  65  75 NW3       29.97R
BURBANK        MOSUNNY   74  58  57 S5        29.97R
ONTARIO        MOSUNNY   78  54  43 CALM      29.98R
RIVERSIDE      MOSUNNY   76  55  48 CALM      29.98R
PALM SPRINGS   SUNNY     90  57  32 CALM      29.87R
EL CENTRO NAS  SUNNY     95  48  20 W10       29.81R
IMPERIAL       SUNNY     93  50  23 W7        29.81R
BLYTHE           N/A    N/A N/A N/A MISG      29.84R
$$

NVZ020-UTZ003-301600-
SOUTHERN NEVADA-UTAH

CITY           SKY/WX    TMP DP  RH WIND       PRES   REMARKS
LAS VEGAS      NOT AVBL
SALT LAKE CITY PTSUNNY   69  62  78 NW3       30.20R
$$

NMZ009-TXZ055-301600-
NEW MEXICO-WEST TEXAS

CITY           SKY/WX    TMP DP  RH WIND       PRES   REMARKS
ALBUQUERQUE    MOSUNNY   71  59  65 CALM      30.24R
EL PASO        MOSUNNY   79  65  62 VRB3      30.11R
$$


........................KEY........................
SKY/WX - SKY CONDITION/WEATHER
TMP    - TEMPERATURE IN FAHRENHEIT
DP     - DEW POINT IN FAHRENHEIT
RH     - RELATIVE HUMIDITY IN PERCENT
WIND   - DIRECTION AND SPEED IN MILES PER HOUR (MPH)
VRB    - VARIABLE WIND DIRECTION
PRES   - MEAN SEA LEVEL PRESSURE IN INCHES OF MERCURY
         F - FALLING PRESSURE   R - RISING PRESSURE
         S - STEADY PRESSURE
VSB    - VISIBILITY IN MILES
HX     - HEAT INDEX IN FAHRENHEIT
WCI    - WIND CHILL INDEX IN FAHRENHEIT
TC     - TEMPERATURE IN CELSIUS WHICH IS ALSO KNOWN AS
         TEMPERATURE IN CENTIGRADE
AFB    - AIR FORCE BASE
         LUKE AFB IS LUKE AIR FORCE BASE
         DAVIS-MONTHAN IS DAVIS-MONTHAN AIR FORCE BASE
NAS    - NAVAL AIR STATION
         EL CENTRO NAS IS EL CENTRO NAVAL AIR STATION
N/A    - NOT AVAILABLE



USA.gov is the U.S. government's official web portal to all federal, state and local government web resources and services.